Location: Bjelajci
(45.0103°N, 16.1758°E)
Time: 09:51:32
(UTC+00:00)

Cosmos 1656 - Pass Details

Date: 14 July 2020
Orbit: 800 x 848 km, 71.1° (Epoch: 07 August)

Event Time Altitude Azimuth Distance (km) Brightness Sun altitude
Rises 00:45:38 0° 332° (NNW) 3,317 7.3 -19.2°
Reaches altitude 10° 00:48:04 10° 329° (NNW) 2,383 6.5 -19.0°
Maximum altitude 00:53:27 66° 249° (WSW) 873 3.5 -18.6°
Enters shadow 00:56:27 27° 174° (S) 1,515 4.6 -18.4°
